This is the latest recevied weather packets stored in our database for station/object MB7UIK. If no packets are shown the sender has not sent any weather packets the latest 1 day(s).
| Time | Temp. | Humidity | Pressure | Rain* | Wind** | Luminosity | Snow |
|---|---|---|---|---|---|---|---|
| 1777983345 | 15° C | 2% | 1011.5 hPa | 0 mm | 1.79 m/s, 42° | - | - |
| 1777983285 | 15° C | 2% | 1011.5 hPa | 0 mm | 2.24 m/s, 46° | - | - |
| 1777983225 | 15° C | 4% | 1011.4 hPa | 0 mm | 1.34 m/s, 51° | - | - |
| 1777983165 | 15° C | 4% | 1011.4 hPa | 0 mm | 2.24 m/s, 53° | - | - |
| 1777983131 | 15° C | 4% | 1011.4 hPa | 0 mm | 2.24 m/s, 53° | - | - |
| 1777983105 | 15° C | 4% | 1011.4 hPa | 0 mm | 3.13 m/s, 12° | - | - |
| 1777983045 | 15° C | 3% | 1011.5 hPa | 0 mm | 1.79 m/s, 61° | - | - |
| 1777982985 | 15° C | 4% | 1011.5 hPa | 0 mm | 1.34 m/s, 13° | - | - |
| 1777982924 | 15° C | 3% | 1011.4 hPa | 0 mm | 1.34 m/s, 10° | - | - |
| 1777982864 | 15° C | 4% | 1011.6 hPa | 0 mm | 1.34 m/s, 5° | - | - |
| 1777982832 | 15° C | 4% | 1011.6 hPa | 0 mm | 1.34 m/s, 5° | - | - |
| 1777982804 | 15° C | 4% | 1011.5 hPa | 0 mm | 2.68 m/s, 349° | - | - |
| 1777982744 | 15° C | 5% | 1011.5 hPa | 0 mm | 1.34 m/s, 360° | - | - |
| 1777982684 | 15° C | 5% | 1011.5 hPa | 0 mm | 2.24 m/s, 46° | - | - |
| 1777982624 | 15° C | 5% | 1011.5 hPa | 0 mm | 1.34 m/s, 52° | - | - |
| 1777982566 | 15° C | 3% | 1011.5 hPa | 0 mm | 2.68 m/s, 72° | - | - |
| 1777982533 | 15° C | 3% | 1011.5 hPa | 0 mm | 2.68 m/s, 72° | - | - |
| 1777982504 | 15° C | 2% | 1011.5 hPa | 0 mm | 1.79 m/s, 76° | - | - |
| 1777982445 | 15° C | 1% | 1011.6 hPa | 0 mm | 2.68 m/s, 86° | - | - |
| 1777982385 | 15° C | 2% | 1011.4 hPa | 0 mm | 0.89 m/s, 40° | - | - |
| 1777982325 | 15° C | 1% | 1011.4 hPa | 0 mm | 3.13 m/s, 40° | - | - |
| 1777982265 | 15° C | 1% | 1011.5 hPa | 0 mm | 0.89 m/s, 110° | - | - |
| 1777982233 | 15° C | 1% | 1011.5 hPa | 0 mm | 0.89 m/s, 110° | - | - |
| 1777982205 | 15° C | 2% | 1011.4 hPa | 0 mm | 1.34 m/s, 74° | - | - |
| 1777982145 | 15° C | 2% | 1011.5 hPa | 0 mm | 1.34 m/s, 59° | - | - |
* Rain latest hour (hover to see other rain measurements)
** Current wind speed in m/s (hover to see current wind gust speed)